Showing default

JILIN-01-07, 43159

Orbit data source: Space-Track

JILIN-01-07, 43159 is a Chinese payload satellite in SSO that was launched on Fri, 19 Jan 2018 UTC via a CHANG ZHENG 11 launch vehicle from the Jiuquan Satellite Launch Center, China (JSC). Payload-class satellites include a variety of spacecraft equipped with specific instruments for various scientific and technological missions. These include communications satellites like Starlink; space stations such as the ISS; scientific satellites like the Hubble; Earth observation satellites from companies like Planet Labs, Umbra, and HawkEye 360; GPS; miniature CubeSats for education and research; and military/defense satellites.

Loading next visibility...
Identifier
43159, 2018-008E
Orbit
SSO
Country
Flag of CNCN / PRC
Related business
Manufacturer
Changguang WJ
Mission
Operational Commercial Imaging
Bus & Motor
JL-1, Unknown motor
Mass
95 kg wet, 95 kg dry
Launch date (UTC)
2018-01-19 (8 years ago)
Launch vehicle
CHANG ZHENG 11
Launch site
Jiuquan Satellite Launch Center, China (JSC)
Object type
Payload
Rocket body
Debris
Shape & HBR
Box + 2 Pan, 0.8 m
Radar Cross Section
2.000 m², Medium (>0.1 m² and < 1m²)

Expand to show TLE details & history
Last TLE update: 7 hours ago

TLE from 7 hours ago
0 JILIN-01-07
1 43159U 18008E   25353.79748403  .00006000  00000-0  20068-3 0  9994
2 43159  97.1922  13.7754 0008515 355.0105   5.1050 15.31309291437514
Epoch: 2025-12-19T19:08Z
TLE epoch observation values (Epoch: 2025-12-19T19:08:22.620Z)
Latitude
-0.00006°
Longitude
-1.95232°
Altitude
469.206 km
Speed
7.635 km/s
True Right ascension
00h 55m 06s
True Declination
0° 00' 00"
Sunlit
Object was in daylight at epoch
Visualization orbit readout
Latitude
Unknown
Longitude
Unknown
Altitude
Unknown
Speed
Unknown
Apparent Right ascension
Unknown
Apparent Declination
Unknown
Sunlit
N/A
Visualization observer readout
Local Sidereal Time
01:25:41
Azimuth
Unknown
Elevation
Unknown
Doppler factor
Unknown
Orbital elements
Apogee altitude
474.677 km
Perigee altitude
463.016 km
Semi-major axis
6,846.984 km
Eccentricity
0.00085
Inclination
97.1922°
RAAN
13.7754°
Arg. of periapsis
355.0105°
True anomaly
5.11369°
Mean anomaly
5.105°
Eccentric anomaly
5.10934°
Mean motion
3.83084 °/min
Orbital period
93.97 mins
BSTAR
0.00020068
Loading maneuver chart data...
Computing Atmospheric mass density...
Loading historical data...
Loading historical data...
Loading historical data...
Loading historical data...
Loading historical data...
Loading historical data...
Loading historical data...

Documentation

Showing up to 5 results
|